TimeCST,TemperatureF,Dew PointF,Humidity,Sea Level PressureIn,VisibilityMPH,Wind Direction,Wind SpeedMPH,Gust SpeedMPH,PrecipitationIn,Events,Conditions,WindDirDegrees,DateUTC
12:53 AM,30.0,21.9,72,30.19,10.0,Calm,Calm,-,N/A,,Clear,0,2013-01-08 06:53:00
1:53 AM,28.9,23.0,78,30.19,9.0,South,3.5,-,N/A,,Clear,190,2013-01-08 07:53:00
2:37 AM,28.4,21.2,74,30.16,9.0,Variable,5.8,39.1,N/A,,Squalls,0,2013-01-08 08:37:00
2:53 AM,27.0,21.9,81,30.19,8.0,Calm,Calm,-,N/A,,Clear,0,2013-01-08 08:53:00
3:53 AM,27.0,21.9,81,30.19,8.0,Calm,Calm,-,N/A,,Clear,0,2013-01-08 09:53:00
4:53 AM,30.0,23.0,75,30.18,10.0,SW,3.5,-,N/A,,Clear,220,2013-01-08 10:53:00
5:53 AM,28.0,21.9,78,30.19,10.0,South,3.5,-,N/A,,Clear,180,2013-01-08 11:53:00
6:53 AM,28.0,21.9,78,30.21,10.0,Calm,Calm,-,N/A,,Clear,0,2013-01-08 12:53:00
7:53 AM,27.0,21.0,78,30.23,8.0,SSE,4.6,-,N/A,,Clear,160,2013-01-08 13:53:00
8:53 AM,32.0,25.0,75,30.24,8.0,Calm,Calm,-,N/A,,Clear,0,2013-01-08 14:53:00
9:53 AM,39.0,26.1,60,30.22,10.0,South,9.2,-,N/A,,Clear,180,2013-01-08 15:53:00
10:53 AM,44.1,26.1,49,30.21,10.0,South,6.9,-,N/A,,Scattered Clouds,190,2013-01-08 16:53:00
11:53 AM,48.0,24.1,39,30.17,10.0,SSE,6.9,-,N/A,,Overcast,160,2013-01-08 17:53:00
12:53 PM,48.0,24.1,39,30.15,10.0,South,6.9,-,N/A,,Mostly Cloudy,170,2013-01-08 18:53:00
1:53 PM,51.1,28.0,41,30.12,10.0,SSE,9.2,-,N/A,,Clear,160,2013-01-08 19:53:00
2:53 PM,53.1,30.0,41,30.14,10.0,South,12.7,-,N/A,,Clear,180,2013-01-08 20:53:00
3:53 PM,51.1,33.1,50,30.13,10.0,South,6.9,-,N/A,,Mostly Cloudy,170,2013-01-08 21:53:00
4:53 PM,51.1,34.0,52,30.15,10.0,South,6.9,-,N/A,,Overcast,170,2013-01-08 22:53:00
5:27 PM,50.0,33.8,54,30.14,10.0,SSE,6.9,-,N/A,,Overcast,160,2013-01-08 23:27:00
5:49 PM,48.2,33.8,58,30.14,10.0,South,6.9,-,N/A,,Mostly Cloudy,180,2013-01-08 23:49:00
6:53 PM,48.9,34.0,56,30.17,10.0,South,6.9,-,N/A,,Overcast,170,2013-01-09 00:53:00
7:53 PM,48.0,34.0,58,30.17,10.0,SSE,4.6,-,N/A,,Overcast,160,2013-01-09 01:53:00
8:53 PM,46.0,36.0,68,30.19,10.0,South,4.6,-,0.00,,Overcast,180,2013-01-09 02:53:00
9:45 PM,44.6,39.2,81,30.19,7.0,Calm,Calm,-,0.04,Rain,Light Rain,0,2013-01-09 03:45:00
9:53 PM,44.1,39.9,85,30.20,8.0,Calm,Calm,-,0.04,,Overcast,0,2013-01-09 03:53:00
11:46 PM,44.6,41.0,87,30.22,5.0,Calm,Calm,-,0.00,,Overcast,0,2013-01-09 05:46:00
11:53 PM,44.1,41.0,89,30.23,6.0,Calm,Calm,-,0.00,,Overcast,0,2013-01-09 05:53:00